Location: Arrodets-la-Barthe
(43.0306°N, 0.2829°E)
Time: 13:05:25
(UTC+00:00)

BlueWalker 3 - Pass Details

Date: 07 December 2022
Orbit: 499 x 517 km, 53.2° (Epoch: 29 January)

Event Time Altitude Azimuth Distance (km) Brightness Sun altitude
Rises 17:40:18 0° 308° (NW) 2,631 6.1 -13.5°
Reaches altitude 10° 17:42:43 10° 319° (NW) 1,738 5.0 -13.9°
Maximum altitude 17:46:11 29° 21° (NNE) 958 3.0 -14.5°
Enters shadow 17:47:16 25° 51° (NE) 1,057 3.0 -14.7°
